| time (UTC) | temp F | wind direction | speed knots | gust knots | rain 1hr in | rain 24hr in | rain mn in | humidity % | barometer mb |
| 20260904172121 | 88 | 309 | 5.2 | 9.6 | 0.00 | 0.03 | 0.03 | 57 | 1009.2 |
| 20260904171122 | 89 | 307 | 4.3 | 11.3 | 0.00 | 0.03 | 0.03 | 58 | 1009.2 |
| 20260904170121 | 88 | 311 | 4.3 | 7.8 | 0.00 | 0.03 | 0.03 | 57 | 1009.2 |
| 20260904165125 | 88 | 329 | 4.3 | 8.7 | 0.00 | 0.03 | 0.03 | 58 | 1009.2 |
| 20260904164142 | 88 | 304 | 4.3 | 7.0 | 0.00 | 0.03 | 0.03 | 57 | 1009.2 |
| 20260904163123 | 88 | 329 | 4.3 | 8.7 | 0.00 | 0.03 | 0.03 | 59 | 1009.2 |
| 20260904162122 | 87 | 319 | 4.3 | 7.8 | 0.00 | 0.03 | 0.03 | 60 | 1009.4 |
| 20260904161124 | 87 | 4 | 3.5 | 7.0 | 0.00 | 0.03 | 0.03 | 61 | 1009.5 |
| 20260904160124 | 87 | 317 | 4.3 | 7.0 | 0.00 | 0.03 | 0.03 | 61 | 1009.5 |
| 20260904155127 | 87 | 322 | 4.3 | 6.1 | 0.00 | 0.03 | 0.03 | 63 | 1009.5 |
| 20260904155121 | 87 | 323 | 4.3 | 6.1 | 0.00 | 0.03 | 0.03 | 63 | 1009.5 |
| 20260904154121 | 86 | 315 | 3.5 | 6.1 | 0.00 | 0.03 | 0.03 | 65 | 1009.7 |
| 20260904153126 | 86 | 301 | 5.2 | 7.0 | 0.00 | 0.03 | 0.03 | 64 | 1009.8 |
| 20260904152142 | 86 | 330 | 4.3 | 7.8 | 0.00 | 0.03 | 0.03 | 65 | 1010.0 |
| 20260904151125 | 85 | 289 | 4.3 | 7.8 | 0.00 | 0.03 | 0.03 | 66 | 1009.8 |
| 20260904150122 | 86 | 280 | 3.5 | 7.8 | 0.00 | 0.03 | 0.03 | 69 | 1009.8 |
| 20260904145122 | 85 | 306 | 3.5 | 7.8 | 0.00 | 0.03 | 0.03 | 70 | 1009.8 |
| 20260904144122 | 84 | 316 | 3.5 | 6.1 | 0.00 | 0.03 | 0.03 | 73 | 1009.9 |
| 20260904143124 | 83 | 314 | 4.3 | 7.8 | 0.00 | 0.03 | 0.03 | 75 | 1009.9 |
| 20260904142122 | 83 | 4 | 3.5 | 7.0 | 0.00 | 0.03 | 0.03 | 78 | 1009.8 |
| 20260904141122 | 82 | 18 | 4.3 | 7.8 | 0.00 | 0.03 | 0.03 | 78 | 1009.6 |
| 20260904140123 | 82 | 343 | 3.5 | 6.1 | 0.00 | 0.03 | 0.03 | 79 | 1009.6 |
| 20260904135125 | 81 | 310 | 4.3 | 7.8 | 0.00 | 0.03 | 0.03 | 81 | 1009.5 |
| 20260904134122 | 81 | 332 | 3.5 | 6.1 | 0.00 | 0.03 | 0.03 | 82 | 1009.5 |
| 20260904133120 | 80 | 310 | 3.5 | 6.1 | 0.00 | 0.03 | 0.03 | 83 | 1009.4 |
| 20260904132120 | 80 | 9 | 3.5 | 6.1 | 0.00 | 0.03 | 0.03 | 83 | 1009.5 |
| 20260904131141 | 80 | 350 | 2.6 | 6.1 | 0.00 | 0.03 | 0.03 | 86 | 1009.4 |
| 20260904130142 | 79 | 307 | 5.2 | 7.8 | 0.00 | 0.03 | 0.03 | 87 | 1009.4 |
| 20260904125141 | 78 | 334 | 4.3 | 6.1 | 0.00 | 0.03 | 0.03 | 88 | 1009.2 |
| 20260904124120 | 79 | 28 | 3.5 | 5.2 | 0.00 | 0.03 | 0.03 | 88 | 1009.4 |
| 20260904123124 | 78 | 358 | 3.5 | 7.0 | 0.00 | 0.03 | 0.03 | 91 | 1009.2 |
| 20260904122120 | 78 | 356 | 3.5 | 7.0 | 0.01 | 0.03 | 0.03 | 93 | 1009.2 |
| 20260904121120 | 77 | 13 | 4.3 | 8.7 | 0.01 | 0.03 | 0.03 | 93 | 1009.2 |
| 20260904120121 | 77 | 13 | 3.5 | 6.1 | 0.01 | 0.03 | 0.03 | 95 | 1009.2 |
| 20260904115120 | 77 | 282 | 2.6 | 6.1 | 0.01 | 0.03 | 0.03 | 98 | 1009.4 |
| 20260904114120 | 76 | 309 | 2.6 | 6.1 | 0.01 | 0.03 | 0.03 | 99 | 1009.2 |
| 20260904113120 | 76 | 281 | 2.6 | 4.3 | 0.01 | 0.03 | 0.03 | 99 | 1009.0 |
| 20260904112144 | 75 | 325 | 1.7 | 2.6 | 0.00 | 0.02 | 0.02 | 99 | 1008.9 |
| 20260904111120 | 75 | 320 | 1.7 | 4.3 | 0.00 | 0.02 | 0.02 | 99 | 1008.8 |
| 20260904110143 | 74 | 316 | 1.7 | 3.5 | 0.00 | 0.02 | 0.02 | 99 | 1008.8 |
| 20260904105123 | 73 | 317 | 1.7 | 4.3 | 0.00 | 0.02 | 0.02 | 99 | 1008.8 |
| 20260904104141 | 73 | 319 | 1.7 | 3.5 | 0.00 | 0.02 | 0.02 | 99 | 1008.7 |
| 20260904103143 | 73 | 295 | 1.7 | 3.5 | 0.00 | 0.02 | 0.02 | 99 | 1008.6 |
| 20260904102124 | 73 | 293 | 1.7 | 3.5 | 0.00 | 0.02 | 0.02 | 99 | 1008.7 |
| 20260904101122 | 72 | 281 | 1.7 | 2.6 | 0.00 | 0.02 | 0.02 | 99 | 1008.5 |
| 20260904100122 | 72 | 345 | 0.0 | 0.9 | 0.00 | 0.02 | 0.02 | 99 | 1008.5 |
| 20260904095124 | 73 | 270 | 0.0 | 0.0 | 0.00 | 0.02 | 0.02 | 99 | 1008.5 |
| 20260904094121 | 73 | 203 | 0.0 | 0.0 | 0.00 | 0.02 | 0.02 | 99 | 1008.2 |
| 20260904093122 | 73 | 180 | 0.0 | 0.0 | 0.00 | 0.02 | 0.02 | 99 | 1008.2 |
| 20260904092126 | 73 | 11 | 0.0 | 0.9 | 0.00 | 0.02 | 0.02 | 99 | 1008.1 |
| 20260904091122 | 73 | 270 | 0.0 | 0.9 | 0.00 | 0.02 | 0.02 | 99 | 1008.2 |
| 20260904090122 | 73 | 238 | 0.0 | 1.7 | 0.00 | 0.02 | 0.02 | 99 | 1008.2 |
| 20260904085142 | 73 | 255 | 0.0 | 1.7 | 0.00 | 0.02 | 0.02 | 99 | 1008.2 |
| 20260904084121 | 74 | 307 | 0.9 | 2.6 | 0.00 | 0.02 | 0.02 | 99 | 1008.2 |
| 20260904083121 | 74 | 280 | 0.0 | 1.7 | 0.00 | 0.02 | 0.02 | 99 | 1008.4 |
| 20260904082145 | 74 | 322 | 0.9 | 1.7 | 0.00 | 0.02 | 0.02 | 99 | 1008.5 |
| 20260904081121 | 74 | 338 | 0.0 | 0.0 | 0.00 | 0.02 | 0.02 | 99 | 1008.6 |
| 20260904080142 | 75 | 268 | 0.0 | 1.7 | 0.02 | 0.03 | 0.02 | 99 | 1008.6 |
| 20260904075123 | 75 | 252 | 1.7 | 2.6 | 0.02 | 0.03 | 0.02 | 99 | 1008.2 |
| 20260904074123 | 75 | 328 | 0.0 | 0.9 | 0.02 | 0.03 | 0.02 | 99 | 1007.9 |
| 20260904073121 | 75 | 104 | 0.9 | 1.7 | 0.02 | 0.04 | 0.02 | 99 | 1007.8 |
| 20260904072143 | 76 | 310 | 1.7 | 2.6 | 0.02 | 0.04 | 0.02 | 99 | 1007.9 |
| 20260904071122 | 77 | 350 | 2.6 | 6.1 | 0.02 | 0.06 | 0.02 | 99 | 1008.2 |
| 20260904070124 | 78 | 323 | 2.6 | 7.8 | 0.00 | 0.05 | 0.00 | 96 | 1008.2 |
| 20260904065126 | 78 | 295 | 2.6 | 6.1 | 0.00 | 0.06 | 0.00 | 94 | 1008.6 |
| 20260904064123 | 78 | 326 | 1.7 | 3.5 | 0.00 | 0.07 | 0.00 | 96 | 1008.6 |
| 20260904063122 | 78 | 319 | 0.9 | 2.6 | 0.00 | 0.07 | 0.00 | 97 | 1008.4 |
| 20260904062143 | 78 | 11 | 0.0 | 0.9 | 0.00 | 0.07 | 0.00 | 98 | 1008.5 |
| 20260904061122 | 78 | 0 | 0.0 | 0.9 | 0.00 | 0.07 | 0.00 | 99 | 1008.5 |
| 20260904060122 | 78 | 290 | 0.0 | 1.7 | 0.00 | 0.08 | 0.00 | 99 | 1008.5 |
| 20260904055125 | 78 | 252 | 0.9 | 3.5 | 0.00 | 0.08 | 0.00 | 99 | 1008.7 |
| 20260904054146 | 77 | 255 | 0.0 | 1.7 | 0.00 | 0.09 | 0.00 | 99 | 1009.1 |
| 20260904053122 | 78 | 262 | 0.0 | 1.7 | 0.00 | 0.09 | 0.00 | 99 | 1009.2 |
| 20260904052121 | 78 | 233 | 0.9 | 1.7 | 0.00 | 0.11 | 0.00 | 99 | 1009.2 |
| 20260904051121 | 78 | 203 | 0.0 | 0.0 | 0.00 | 0.16 | 0.00 | 98 | 1009.2 |
| 20260904050122 | 78 | 184 | 0.0 | 1.7 | 0.00 | 0.17 | 0.00 | 98 | 1009.5 |
| 20260904045121 | 78 | 226 | 0.0 | 1.7 | 0.00 | 0.17 | 0.00 | 98 | 1009.5 |
| 20260904044121 | 78 | 249 | 0.9 | 2.6 | 0.00 | 0.18 | 0.00 | 97 | 1009.7 |
| 20260904043122 | 78 | 240 | 0.9 | 2.6 | 0.00 | 0.18 | 0.00 | 97 | 1009.9 |
| 20260904042126 | 78 | 205 | 0.9 | 4.3 | 0.00 | 0.18 | 0.00 | 97 | 1010.0 |
| 20260904041123 | 78 | 258 | 0.9 | 2.6 | 0.00 | 0.18 | 0.00 | 97 | 1010.0 |
| 20260904040123 | 78 | 254 | 1.7 | 3.5 | 0.00 | 0.18 | 0.00 | 97 | 1010.0 |
| 20260904035126 | 78 | 248 | 0.0 | 2.6 | 0.00 | 0.18 | 0.18 | 97 | 1010.0 |
| 20260904034122 | 78 | 196 | 0.9 | 1.7 | 0.00 | 0.18 | 0.18 | 96 | 1009.8 |
| 20260904033124 | 78 | 233 | 0.9 | 2.6 | 0.00 | 0.18 | 0.18 | 96 | 1009.7 |
| 20260904032127 | 78 | 169 | 0.0 | 0.9 | 0.00 | 0.18 | 0.18 | 96 | 1009.8 |
| 20260904031122 | 78 | 218 | 0.9 | 1.7 | 0.00 | 0.18 | 0.18 | 96 | 1009.9 |
| 20260904030124 | 78 | 202 | 0.9 | 2.6 | 0.00 | 0.18 | 0.18 | 95 | 1009.9 |
| 20260904025122 | 78 | 203 | 0.0 | 0.0 | 0.00 | 0.18 | 0.18 | 95 | 1010.1 |
| 20260904024143 | 78 | 225 | 0.0 | 0.0 | 0.00 | 0.18 | 0.18 | 95 | 1010.2 |
| 20260904023122 | 78 | 270 | 0.0 | 0.9 | 0.00 | 0.18 | 0.18 | 95 | 1010.5 |
| 20260904022123 | 78 | 264 | 0.9 | 2.6 | 0.00 | 0.18 | 0.18 | 97 | 1010.7 |
| 20260904021127 | 77 | 243 | 0.0 | 1.7 | 0.00 | 0.18 | 0.18 | 97 | 1010.8 |
| 20260904020142 | 77 | 248 | 0.0 | 0.0 | 0.00 | 0.18 | 0.18 | 98 | 1010.8 |
| 20260904015121 | 77 | 248 | 0.0 | 0.0 | 0.00 | 0.18 | 0.18 | 98 | 1010.8 |
| 20260904014144 | 77 | 270 | 0.0 | 0.0 | 0.00 | 0.18 | 0.18 | 98 | 1010.9 |
| 20260904013121 | 77 | 225 | 0.0 | 0.0 | 0.00 | 0.18 | 0.18 | 98 | 1010.7 |
| 20260904012126 | 77 | 113 | 0.0 | 0.0 | 0.00 | 0.18 | 0.18 | 97 | 1010.8 |
| 20260904011127 | 77 | 315 | 0.0 | 0.0 | 0.00 | 0.18 | 0.18 | 97 | 1010.5 |
| 20260904010121 | 78 | 90 | 0.0 | 0.9 | 0.00 | 0.18 | 0.18 | 97 | 1010.5 |
| 20260904005122 | 78 | 203 | 0.0 | 0.0 | 0.00 | 0.18 | 0.18 | 97 | 1010.7 |
| 20260904004121 | 78 | 225 | 0.0 | 0.0 | 0.00 | 0.18 | 0.18 | 96 | 1010.8 |
| 20260904003148 | 78 | 158 | 0.0 | 0.0 | 0.00 | 0.18 | 0.18 | 95 | 1010.6 |
| 20260904002121 | 78 | 202 | 0.0 | 1.7 | 0.00 | 0.18 | 0.18 | 94 | 1010.5 |
| 20260904001121 | 78 | 169 | 0.0 | 1.7 | 0.00 | 0.18 | 0.18 | 94 | 1010.2 |
| 20260904000143 | 79 | 220 | 0.9 | 1.7 | 0.00 | 0.18 | 0.18 | 91 | 1010.2 |
| 20260903235142 | 79 | 208 | 0.9 | 1.7 | 0.00 | 0.18 | 0.18 | 91 | 1010.2 |
| 20260903234123 | 80 | 194 | 0.0 | 1.7 | 0.00 | 0.18 | 0.18 | 90 | 1010.1 |
| 20260903233122 | 80 | 88 | 0.0 | 1.7 | 0.00 | 0.18 | 0.18 | 89 | 1010.0 |
| 20260903232124 | 81 | 135 | 0.0 | 1.7 | 0.00 | 0.18 | 0.18 | 87 | 1010.0 |
| 20260903231121 | 82 | 151 | 0.9 | 1.7 | 0.00 | 0.18 | 0.18 | 86 | 1010.2 |
| 20260903230122 | 82 | 165 | 0.9 | 2.6 | 0.00 | 0.18 | 0.18 | 86 | 1010.2 |
| 20260903225122 | 82 | 179 | 1.7 | 2.6 | 0.00 | 0.18 | 0.18 | 84 | 1010.2 |
| 20260903224122 | 83 | 157 | 0.9 | 2.6 | 0.00 | 0.18 | 0.18 | 83 | 1010.2 |
| 20260903223143 | 84 | 208 | 1.7 | 3.5 | 0.00 | 0.18 | 0.18 | 81 | 1010.4 |
| 20260903222122 | 85 | 288 | 0.9 | 2.6 | 0.00 | 0.18 | 0.18 | 79 | 1010.2 |
| 20260903221124 | 85 | 182 | 1.7 | 2.6 | 0.00 | 0.18 | 0.18 | 78 | 1010.1 |
| 20260903220142 | 86 | 178 | 1.7 | 3.5 | 0.00 | 0.18 | 0.18 | 76 | 1010.2 |
| 20260903215121 | 87 | 206 | 1.7 | 2.6 | 0.00 | 0.18 | 0.18 | 74 | 1010.2 |
| 20260903214125 | 87 | 112 | 1.7 | 3.5 | 0.00 | 0.18 | 0.18 | 74 | 1010.1 |
| 20260903213123 | 89 | 292 | 0.9 | 2.6 | 0.00 | 0.18 | 0.18 | 68 | 1010.0 |
| 20260903212121 | 89 | 280 | 0.9 | 1.7 | 0.00 | 0.18 | 0.18 | 68 | 1010.0 |
| 20260903211145 | 88 | 288 | 0.9 | 1.7 | 0.00 | 0.18 | 0.18 | 69 | 1010.0 |
| 20260903210121 | 89 | 250 | 1.7 | 3.5 | 0.00 | 0.18 | 0.18 | 67 | 1010.0 |
| 20260903205210 | 89 | 253 | 1.7 | 2.6 | 0.00 | 0.18 | 0.18 | 68 | 1010.2 |
| 20260903205142 | 89 | 248 | 1.7 | 2.6 | 0.00 | 0.18 | 0.18 | 68 | 1010.2 |
| 20260903204121 | 90 | 318 | 1.7 | 3.5 | 0.00 | 0.18 | 0.18 | 66 | 1010.1 |
| 20260903203121 | 91 | 272 | 1.7 | 2.6 | 0.00 | 0.18 | 0.18 | 64 | 1010.0 |
| 20260903202122 | 91 | 265 | 2.6 | 4.3 | 0.00 | 0.18 | 0.18 | 66 | 1010.0 |
| 20260903201146 | 91 | 316 | 1.7 | 3.5 | 0.00 | 0.18 | 0.18 | 65 | 1010.2 |
| 20260903200126 | 91 | 320 | 2.6 | 4.3 | 0.00 | 0.18 | 0.18 | 65 | 1010.2 |
| 20260903195124 | 91 | 284 | 1.7 | 3.5 | 0.00 | 0.18 | 0.18 | 65 | 1010.2 |
| 20260903194123 | 91 | 243 | 2.6 | 7.0 | 0.00 | 0.36 | 0.18 | 65 | 1010.2 |
| 20260903193124 | 90 | 285 | 2.6 | 5.2 | 0.00 | 0.41 | 0.18 | 66 | 1010.4 |
| 20260903192122 | 91 | 260 | 2.6 | 4.3 | 0.00 | 0.42 | 0.18 | 66 | 1010.6 |
| 20260903191125 | 90 | 260 | 2.6 | 5.2 | 0.00 | 0.42 | 0.18 | 65 | 1010.9 |
| 20260903190143 | 89 | 264 | 2.6 | 6.1 | 0.00 | 0.42 | 0.18 | 66 | 1010.9 |
| 20260903185143 | 90 | 347 | 2.6 | 6.1 | 0.00 | 0.42 | 0.18 | 65 | 1010.9 |
| 20260903184146 | 91 | 334 | 2.6 | 6.1 | 0.00 | 0.42 | 0.18 | 64 | 1011.0 |
| 20260903183122 | 89 | 279 | 3.5 | 7.8 | 0.00 | 0.42 | 0.18 | 66 | 1011.0 |
| 20260903182143 | 89 | 30 | 2.6 | 6.1 | 0.00 | 0.42 | 0.18 | 66 | 1011.2 |
| 20260903181148 | 89 | 279 | 3.5 | 6.1 | 0.00 | 0.42 | 0.18 | 67 | 1011.4 |
| 20260903180123 | 89 | 263 | 3.5 | 7.0 | 0.00 | 0.42 | 0.18 | 67 | 1011.4 |
| 20260903175142 | 89 | 309 | 3.5 | 7.8 | 0.00 | 0.42 | 0.18 | 67 | 1011.4 |
| 20260903174145 | 88 | 315 | 2.6 | 5.2 | 0.00 | 0.42 | 0.18 | 70 | 1011.6 |
| 20260903173121 | 87 | 315 | 3.5 | 6.1 | 0.00 | 0.42 | 0.18 | 70 | 1011.8 |